Regional Weather Roundup
Issued by NWS

Home | Current Version | Previous Version | Graphics & Text | Print | Product List | Glossary On
Versions: 1 2 3 4 5 6 7 8 9 10 11 12 13 14 15 16 17 18 19 20 21 22 23 24 25 26 27 28 29 30 31 32 33 34 35 36 37 38 39 40 41 42 43 44 45 46 47 48 49 50
422
ASUS43 KMPX 231501
RWRMN
WEATHER ROUNDUP FOR MINNESOTA
NATIONAL WEATHER SERVICE TWIN CITIES/CHANHASSEN MN
900 AM CST MON JAN 23 2017


NOTE: "FAIR" INDICATES FEW OR NO CLOUDS BELOW 12,000 FEET WITH NO
SIGNIFICANT WEATHER AND/OR OBSTRUCTIONS TO VISIBILITY. N/A MEANS
CURRENT SKY AND/OR WEATHER CONDITIONS ARE NOT AVAILABLE.

MNZ060>063-068>070-231600-
   Twin Cities Metro

CITY           SKY/WX    TMP DP  RH WIND       PRES   REMARKS
TWIN CITIES    CLOUDY    34  32  92 CALM      29.81S FOG
ST PAUL        CLOUDY    34  33  96 NW7       29.82S FOG     WCI  28
CRYSTAL        CLOUDY    33  30  88 CALM      29.79F FOG
BLAINE         LGT SNOW  34  34 100 W5        29.80F FOG     WCI  30
LAKEVILLE      CLOUDY    30  30 100 W5        29.81S FOG     WCI  25
EDEN PRAIRIE   CLOUDY    33  31  92 W3        29.80S FOG
SOUTH ST PAUL  CLOUDY    34  33  99 NW3       29.81S FOG
LAKE ELMO      CLOUDY    34  34 100 W3        29.82S FOG
$$
MNZ001>005-007-008-013>017-022>024-027-028-231600-
   Northwest Minnesota

CITY           SKY/WX    TMP DP  RH WIND       PRES   REMARKS
BEMIDJI        CLOUDY    30  28  92 W5        29.75F WCI  25
HALLOCK        CLOUDY    30  30 100 SW5       29.74F WCI  25
ROSEAU         CLOUDY    30  27  86 CALM      29.74S
WARROAD        CLOUDY    30  27  86 SW5       29.74S WCI  25
THIEF RVR FALL CLOUDY    30  28  92 SW6       29.76F WCI  24
CROOKSTON      CLOUDY    30  28  93 W7        29.78S WCI  23
FOSSTON        CLOUDY    28  27  93 SW3       29.76F FOG
DETROIT LAKES  MOCLDY    32  28  86 W6        29.78S WCI  26
MOORHEAD       CLOUDY    32  27  80 W6        29.82R WCI  26
PARK RAPIDS    CLOUDY    32  25  75 NW7       29.75F WCI  26
MAHNOMEN       CLOUDY    30  29  96 SW5       29.76S WCI  25
$$
MNZ006-009>011-018-025>026-231600-
   North Central Minnesota

CITY           SKY/WX    TMP DP  RH WIND       PRES   REMARKS
BAUDETTE       CLOUDY    32  31  96 SW3       29.73F FOG
FLAG ISLAND    CLOUDY    32  30  93 SW3       29.72F FOG
INTL FALLS     CLOUDY    32  31  96 W6        29.74S FOG     WCI  26
WASKISH        CLOUDY    30  30 100 SW6       29.75S WCI  24
BIG FORK       MIX PCPN  32  30  93 W3        29.76S VSB 3/4
LONGVILLE      CLOUDY    30  30 100 CALM      29.76F FOG
GRAND RAPIDS   MIX PCPN  32  31  96 NW8       29.78R FOG     WCI  25
CRANE LAKE     CLOUDY    32  32 100 CALM      29.76S
ORR            CLOUDY    32  30  93 CALM      29.72F
COOK           CLOUDY    32  32 100 W5        29.75S WCI  27
WALKER         CLOUDY    30  27  87 NW6       29.76S WCI  24
$$
MNZ012-019>021-037-231600-
   Northeast Minnesota

CITY           SKY/WX    TMP DP  RH WIND       PRES   REMARKS
DULUTH         MOCLDY    33  33 100 NW6       29.75R WCI  28
ELY            FLURRIES  34  34 100 CALM      29.74R
HIBBING        CLOUDY    32  32 100 CALM      29.74F
EVELETH        CLOUDY    34  33  98 CALM      29.76R
DULUTH HARBOR  CLOUDY    34  34 100 SW3       29.78S
TWO HARBORS    CLOUDY    37  34  87 CALM      29.73S
SILVER BAY     CLOUDY    36  36 100 CALM      29.73R
GRAND MARAIS     N/A     38  33  82 CALM      29.75S
G MARAIS ARPRT CLOUDY    30  27  86 N3        29.72R
$$
MNZ029>031-032-039>041-046>048-054>057-064-231600-
   West Central Minnesota

CITY           SKY/WX    TMP DP  RH WIND       PRES   REMARKS
FERGUS FALLS   CLOUDY    32  30  93 NW7       29.84S WCI  26
WHEATON        CLOUDY    37  34  87 W6        29.85R
MORRIS         CLOUDY    32  28  86 NW7       29.81R WCI  26
ALEXANDRIA     CLOUDY    31  27  85 NW8       29.79S WCI  23
ELBOW LAKE     CLOUDY    31  29  92 NW7       29.81R FOG     WCI  24
WADENA         CLOUDY    28  28 100 CALM      29.77R
GLENWOOD       CLOUDY    30  27  86 NW8       29.79S WCI  23
APPLETON       CLOUDY    34  30  86 W6        29.84R WCI  29
ORTONVILLE     CLOUDY    32  27  80 CALM      29.84R
MADISON        CLOUDY    36  32  87 W9        29.85R
WILLMAR        CLOUDY    34  30  86 CALM      29.82R
$$
MNZ033>034-036-042>043-049>051-058-059-231600-
   Central Minnesota

CITY           SKY/WX    TMP DP  RH WIND       PRES   REMARKS
ST CLOUD       LGT SNOW  32  31  96 CALM      29.79S VSB 1
SAUK CENTRE    CLOUDY    31  26  83 NW10      29.78F WCI  22
PAYNESVILLE    CLOUDY    32  31  96 N8        29.79F WCI  25
AITKIN         CLOUDY    34  30  86 CALM      29.76F FOG
PINE RIVER     CLOUDY    30  30 100 NW3       29.80F FOG
BRAINERD       LGT SNOW  31  30  96 NW6       29.77F FOG     WCI  25
STAPLES        CLOUDY    28  28 100 NW3       29.77S
LONG PRAIRIE   CLOUDY    30  28  93 CALM      29.78S
LITTLE FALLS   CLOUDY    32  30  93 CALM      29.79S FOG
LITCHFIELD     CLOUDY    34  30  86 N7        29.79F WCI  28
BUFFALO        CLOUDY    32  30  92 CALM      29.81S FOG
MAPLE LAKE     CLOUDY    33  32  96 NW3       29.80F FOG
HUTCHINSON     CLOUDY    33  30  88 NW7       29.80F WCI  27
$$
MNZ037-044-045-052-053-231600-
   East Central Minnesota

CITY           SKY/WX    TMP DP  RH WIND       PRES   REMARKS
PRINCETON      CLOUDY    34  32  93 CALM      29.79F FOG
MORA           CLOUDY    32  32 100 W3        29.81S FOG
CAMBRIDGE      MIX PCPN  36  34  93 CALM      29.78S
RUSH CITY      LGT SNOW  32  32 100 W3        29.80R VSB 1
MOOSE LAKE     CLOUDY    34  32  93 W6        29.76R WCI  29
HINCKLEY       CLOUDY    32  32 100 CALM      29.79R FOG
CLOQUET        CLOUDY    34  32  93 NW3       29.76S
MCGREGOR       CLOUDY    32  32 100 W3        29.78R VSB 1/2
$$
MNZ071>073-080-081-089-090-097-098-231600-
   Southwest Minnesota

CITY           SKY/WX    TMP DP  RH WIND       PRES   REMARKS
MONTEVIDEO     CLOUDY    32  32 100 NW6       29.85R WCI  26
GRANITE FALLS  CLOUDY    34  31  88 W7        29.86R WCI  28
CANBY          CLOUDY    33  29  87 CALM      29.86R
MARSHALL       CLOUDY    32  29  88 W9        29.85R WCI  24
REDWOOD FALLS  CLOUDY    33  26  75 NW8       29.83R WCI  26
OLIVIA         CLOUDY    34  30  86 NW7       29.81R WCI  28
PIPESTONE      CLOUDY    30  28  93 W7        29.84R FOG     WCI  23
WINDOM         CLOUDY    32  30  93 W8        29.83R WCI  25
WORTHINGTON    CLOUDY    30  28  92 W7        29.84R WCI  23
JACKSON        CLOUDY    32  28  86 NW7       29.85R WCI  26
TRACY          CLOUDY    32  30  93 NW7       29.84R WCI  26
SLAYTON        CLOUDY    30  28  94 W6        29.84R WCI  24
$$
MNZ065>067-074>077-082>085-091>093-231600-
   South Central Minnesota

CITY           SKY/WX    TMP DP  RH WIND       PRES   REMARKS
MANKATO        CLOUDY    32  28  85 N5        29.81F WCI  27
NEW ULM        CLOUDY    34  27  75 N10       29.81S WCI  26
ST JAMES       CLOUDY    32  28  86 NW9       29.84R WCI  24
FAIRMONT       CLOUDY    32  27  81 N8        29.83R WCI  25
GLENCOE        CLOUDY    33  32  94 NW5       29.79F WCI  29
OWATONNA       CLOUDY    32  30  93 NW3       29.80F FOG
WASECA         CLOUDY    32  30  93 NW3       29.82S FOG
ALBERT LEA     CLOUDY    34  30  86 N3        29.79F
$$
MNZ078>079-086>088-094>096-231600-
   Southeast Minnesota

CITY           SKY/WX    TMP DP  RH WIND       PRES   REMARKS
ROCHESTER      CLOUDY    32  31  96 N7        29.80S FOG     WCI  26
RED WING       LGT SNOW  34  32  93 CALM      29.82S VSB 3/4
STANTON        CLOUDY    33  32  94 CALM      29.80F FOG
DODGE CENTER   CLOUDY    30  30 100 CALM      29.80S FOG
WINONA         CLOUDY    34  34 100 CALM      29.84S FOG
AUSTIN         CLOUDY    32  28  86 N5        29.80S WCI  27
PRESTON        LGT SNOW  31  30  95 CALM      29.82S
$$
ABBREVIATIONS USED IN REMARKS
   TC - TEMPERATURES IN CELSIUS
  WCI - WIND CHILL INDEX
   HX - HEAT INDEX
  VSB - VISIBILITY
$$




USA.gov is the U.S. government's official web portal to all federal, state and local government web resources and services.